User: anonymous   Login
Location: Caltech
(34.1382°N, 118.1253°W)
Time: 21:21:37
(UTC-08:00)
Language:

Spot 4 Rocket - Orbit

View from above orbital plane
View from above orbital plane
View from above satellite
View from above satellite

Ground track
Ground track

The orbit data is extracted from the following two-line orbital elements,

1 25261U 98017B   17346.38605384  .00000083  00000-0  45664-4 0  9999
2 25261  98.5682 291.6202 0002347 295.1988  64.8953 14.33631616 30547
Epoch (UTC): 12 December 2017 09:15:55
Eccentricity: 0.0002347
inclination: 98.5682°
perigee height: 778 km
apogee height: 781 km
right ascension of ascending node: 291.6202°
argument of perigee: 295.1988°
revolutions per day: 14.33631616
mean anomaly at epoch: 64.8953°
orbit number at epoch: 3054

The dashed part of the orbit path shows where the satellite is in the earth's shadow,  

DLR